Tracking 18980 objects as of 23-Feb-2018
HD Live streaming from Space Station
objects crossing your sky now

COSMOS 482 DESCENT CRAFT

Track COSMOS 482 DESCENT CRAFT now!
10-day predictions
COSMOS 482 DESCENT CRAFT is classified as:


NORAD ID: 6073
Int'l Code: 1972-023E
Perigee: 208.5 km
Apogee: 2,526.7 km
Inclination: 52.1 °
Period: 112.9 minutes
Semi major axis: 7738 km
RCS: 0.7153 m2 (medium)
Launch date: March 31, 1972
Source: Commonwealth of Independent States (former USSR) (CIS)
Launch site: TYURATAM MISSILE AND SPACE COMPLEX (TTMTR)
aabbcc
Your satellite tracking list
Your tracking list is empty




NASA's NSSDC Master Catalog

Two Line Element Set (TLE):
1  6073U 72023E   18053.59233154 +.00017524 +55758-5 +82141-4 0  9993
2  6073 052.0576 008.4659 1497842 163.8918 201.5511 12.75298865392873
Source of the keplerian elements: AFSPC